Home > Weather > Sacramento > Past weeks

Flag for U.S.A. Weather for the Past 2 Weeks in Sacramento, California, U.S.A.

Now
74 °F

Sunny.


Feels Like: 77 °F
Forecast: 44 / 71 °F
Wind: No wind

Location: Sacramento Executive Airport

Current Time: Feb 8, 2016 at 6:06:53 PM

Latest Report: Feb 8, 2016 at 4:53 PM


Visibility: 10 mi

Pressure: 30.16 "Hg

Humidity: 35%

Dew point: 44 °F

Location of SacramentoLocation

Historic Weather in Sacramento — Graph

°F

Sacramento Temperature Yesterday

Maximum temperature yesterday: 70 °F (at 2:53 PM)
Minimum temperature yesterday: 39 °F (at 6:57 AM)
Average temperature yesterday: 53 °F

High & Low Weather Summary for the Past Weeks

 TemperatureHumidityPressure
High74 °F (Feb 8, 2:53 PM)100% (Feb 6, 7:53 AM)30.49 "Hg (Feb 6, 7:53 AM)
Low35 °F (Feb 3, 3:53 AM)29% (Feb 1, 2:53 PM)29.71 "Hg (Jan 31, 2:53 PM)
Average50 °F76%30.24 "Hg
* Reported Jan 24 4:53 PM — Feb 8 4:53 PM, Sacramento, Weather by CustomWeather, © 2016

Note: Actual official high and low records may vary slightly from our data, if they occured in-between our weather recording intervals... More about our weather records

Advertising

Sacramento Weather History for the Previous 24 Hours

 ConditionsComfort  
Time TempWeatherWind HumidityBarometerVisibility
4:53 PM
Mon, Feb 8
74 °FSunny.No wind35%30.16 "Hg10 mi
3:53 PM73 °FSunny.No wind37%30.16 "Hg10 mi
2:53 PM74 °FSunny.7 mph35%30.17 "Hg10 mi
1:53 PM73 °FSunny.7 mph38%30.19 "Hg10 mi
12:53 PM70 °FSunny.5 mph38%30.23 "Hg10 mi
11:53 AM68 °FSunny.8 mph42%30.26 "Hg10 mi
10:53 AM62 °FSunny.No wind60%30.28 "Hg10 mi
9:53 AM58 °FSunny.No wind72%30.28 "Hg10 mi
8:53 AM49 °FFog.No wind93%30.27 "Hg5 mi
7:53 AM42 °FFog.No wind96%30.26 "Hg1 mi
7:04 AM42 °FFog.3 mph92%30.26 "Hg0 mi
7:00 AM41 °FFog.3 mph93%30.26 "Hg1 mi
5:53 AM41 °FFog.No wind93%30.25 "Hg4 mi
5:04 AM41 °FFog.No wind96%30.25 "Hg2 mi
4:03 AM44 °FFog.3 mph93%30.25 "Hg6 mi
3:53 AM44 °FFog.No wind89%30.24 "Hg2 mi
2:53 AM45 °FFog.No wind93%30.25 "Hg2 mi
1:53 AM47 °FClear.No wind90%30.25 "Hg7 mi
12:53 AM47 °FClear.No wind90%30.25 "Hg8 mi
11:53 PM
Sun, Feb 7
49 °FClear.3 mph86%30.26 "Hg8 mi
10:53 PM51 °FClear.3 mph83%30.26 "Hg9 mi
9:53 PM50 °FClear.No wind86%30.25 "Hg9 mi
8:53 PM52 °FClear.No wind83%30.24 "Hg10 mi
7:53 PM56 °FClear.No wind75%30.22 "Hg10 mi
6:53 PM59 °FClear.3 mph67%30.22 "Hg10 mi
Weather by CustomWeather, © 2016

See weather overviewHow to use our weather pages